Airfield :
LOGIN :

Register | Disclaimer

   EN    FR    IT 

 










Legend :    VFR   Marginal VFR   IFR   Intensive IFR   Very Intensive IFR
Visi :
Ceiling :
>= 8 km
>= 3000ft
5 to 8 km
1000 to 3000 ft
1500m to 5 km
500 to 1000 ft
800 to 1500m
200 to 500 ft
< 800m
< 200 ft
Symbols :   Thunderstorms  Fog  Heavy snow  Heavy precipitations  Wind > 20 kt
SIGMETs :     Misc.  Thunderstorms  Icing  Turbulence  Mountain Waves  Volcanic Ashes







- Airport Elevation : 120 ft
- IATA code : MME
- Download approach charts


EGNV - Durham Tees valley

CURRENT METAR :
  • 182020Z 00000KT CAVOK 05/04 Q1027

EXPIRED METARs :
  • 181950Z 15003KT CAVOK 05/03 Q1027
  • 181920Z 13004KT CAVOK 04/02 Q1027
  • 181850Z 13005KT CAVOK 05/03 Q1027
  • 181820Z 12005KT CAVOK 06/03 Q1028
  • 181750Z 11005KT CAVOK 07/04 Q1028

TAF TAF EGNV
Valid from the 18 at 18:00 until the 18 at 21:00 UTC


181656Z 1818/1821 VRB03KT 9999 FEW030
ATIS : +44 9012 018 111
No reported NOTAMs for that airfield.



MET'MAP, your aeronautical weather chart ! - Copyright ORBIFLY December 2007 - Disclaimer

ORBIFLY MET'MAP TEAM :

Programming & Development : Alexandra Zaïnal
Concept & Development : Baudouin d'Aumeries
Co-Development & Prog : Marc-Olivier Méhu
Technical & hardware support : Manuel Goepfert

Contact : metmap@orbifly.com




SOURCES & CREDITS :

   NOAA